カタログに戻る

STARLINK-5126

運用中通信VLEO
NORAD 54012·PAYLOAD·🇺🇸 United States

打ち上げ Oct 5, 2022 から Vandenberg Space Force Base

Loading…

次のパス (今後24時間)

TLE

最新Source: CelesTrak SupGP

元期: Sep 15, 2026, 01:32 UTC

1 54012C 22125BA  26258.06437500 -.00027941  00000+0 -89868-3 0  2586
2 54012  53.1593  60.2734 0001268  86.6466 101.3028 15.31709872    14

AllMySatでSTARLINK-5126をリアルタイム追跡

Download on the App Store